sat.trackr.live / text

‹ back to catalog

STARLINK-11395 [DTC]

NORAD 61951 · 2024-209N

PAYLOAD ACTIVE UNKNOWN

§ Identity

Operator
Country
US
Launch date
2024-11-14
Launch site
AFWTR
Launch vehicle
Mass (kg)
RCS (m²)

Purposes: comms

External: N2YO · Heavens-Above · Gunter

§ Orbital elements

Epoch: 2026-09-21T22:48:29.228256Z

Period
91.74 min
Inclination
53.1564°
Eccentricity
0.0000812
Mean motion
15.69668699 rev/d
Perigee alt
359.3 km
Apogee alt
360.4 km
Semi-major
6,738.0 km
B*
1.0018e-3
RAAN
123.7092°
Arg perigee
35.1603°
Mean anomaly
324.9468°
Rev number
10,750

§ Raw data

STARLINK-11395 [DTC]1 61951U 24209N   26264.95033829  .00122368  00000+0  10018-2 0  99912 61951  53.1564 123.7092 0000812  35.1603 324.9468 15.69668699107505

JSON: /api/v1/satellites/61951 · /tle

For live sub-satellite position, see the globe view (requires WebGL).

§ Visibility from observer

Set your observer location to see the next 7 days of passes ≥ 10°. The values pass through the URL so the page stays shareable.

No JS? Fill the form by hand. The geolocation button needs JavaScript.